Regional Weather Roundup
Issued by NWS

Home | Current Version | Previous Version | Graphics & Text | Print | Product List | Glossary On
Versions: 1 2 3 4 5 6 7 8 9 10 11 12 13 14 15 16 17 18 19 20 21 22 23 24 25 26 27 28 29 30 31 32 33 34 35 36 37 38 39 40 41 42 43 44 45 46 47 48 49 50
000
ASUS45 KBOI 241110
RWRID
WEATHER ROUNDUP FOR IDAHO
NATIONAL WEATHER SERVICE BOISE ID
500 AM MDT FRI APR 24 2015

NOTE: "FAIR" INDICATES FEW OR NO CLOUDS BELOW 12000 FEET
WITH NO SIGNIFICANT WEATHER AND/OR OBSTRUCTIONS TO VISIBILITY

IDZ012-014-241200-
SOUTHWEST IDAHO


CITY           SKY/WX    TMP DP  RH WIND       PRES   REMARKS
BOISE          CLOUDY    50  43  77 NW13      29.72R
CALDWELL       CLOUDY    46  37  71 NW9       29.76R
MOUNTAIN HOME  CLOUDY    51  40  63 NW18      29.68R
$$

IDZ016-017-241200-
SOUTHCENTRAL IDAHO


CITY           SKY/WX    TMP DP  RH WIND       PRES   REMARKS
BURLEY         PTCLDY    45  35  68 SW9       29.65F
JEROME         MOCLDY    45  33  63 S6        29.68S
TWIN FALLS     MOCLDY    46  35  65 SW13      29.68R
$$

IDZ019>023-241200-
SOUTHEAST IDAHO


CITY           SKY/WX    TMP DP  RH WIND       PRES   REMARKS
IDAHO FALLS    CLEAR     34  29  82 CALM      29.69F
POCATELLO      CLEAR     39  34  82 SW7       29.69S WCI  34
REXBURG        CLEAR     34  27  75 N6        29.69S WCI  29
$$

IDZ006-010-011-018-031-032-241200-
CENTRAL IDAHO MOUNTAINS


CITY           SKY/WX    TMP DP  RH WIND       PRES   REMARKS
MCCALL         LGT RAIN  37  35  92 NW6       29.70S WCI  32
HAILEY         CLOUDY    41  30  65 W5        29.70F
STANLEY          N/A     33  24  69 CALM      29.70F
SALMON         CLOUDY    46  36  66 CALM      29.60F
CHALLIS        CLOUDY    47  27  45 CALM      29.64S
$$

IDZ002-004-006-007-026-241200-
NORTHERN IDAHO


CITY           SKY/WX    TMP DP  RH WIND       PRES   REMARKS
LEWISTON       CLOUDY    46  43  89 CALM      29.76R
LOWELL           N/A     45  43  93 CALM      29.78S
COEUR D`ALENE  CLOUDY    43  37  81 S9        29.71S
MULLAN PASS    SNOW      30  29  96 SW6       29.67S VSB 1/4 WCI  24
$$


USA.gov is the U.S. government's official web portal to all federal, state and local government web resources and services.